Showing default

GAOFEN 3, 41727

Orbit data source: Space-Track

GAOFEN 3, 41727 is a payload satellite owned by GWHYZ (CN) in SSO that was launched on Tue, 09 Aug 2016 UTC via a CHANG ZHENG 4C launch vehicle from the Taiyaun Space Center, China (TSC). Payload-class satellites include a variety of spacecraft equipped with specific instruments for various scientific and technological missions. These include communications satellites like Starlink; space stations such as the ISS; scientific satellites like the Hubble; Earth observation satellites from companies like Planet Labs, Umbra, and HawkEye 360; GPS; miniature CubeSats for education and research; and military/defense satellites.

Loading next visibility...
Identifier
41727, 2016-049A
Orbit
SSO
Country
Flag of CNCN / PRC
Related business
Manufacturer
CAST
Mission
Operational Civil Radar Imaging
Bus & Motor
CS-L3000B, Unknown motor
Mass
~2,779 kg wet, ~2,500 kg dry
Launch date (UTC)
2016-08-09 (9 years ago)
Launch vehicle
CHANG ZHENG 4C
Launch site
Taiyaun Space Center, China (TSC)
Object type
Payload
Rocket body
Debris
Shape & HBR
Box + 3 Pan, 4.0 m
Radar Cross Section
10.846 m², Large (>1 m²)

Expand to show TLE details & history
Last TLE update: 12 hours ago

TLE from 12 hours ago
0 GAOFEN 3
1 41727U 16049A   25298.51741836  .00000128  00000-0  52176-4 0  9998
2 41727  98.4056 304.8321 0001461 107.2485 252.8864 14.42216705484828
Epoch: 2025-10-25T12:25Z
TLE epoch observation values (Epoch: 2025-10-25T12:25:04.946Z)
Latitude
-0.00008°
Longitude
84.41467°
Altitude
754.445 km
Speed
7.477 km/s
True Right ascension
20h 19m 19s
True Declination
0° 00' 00"
Sunlit
Object was in daylight at epoch
Visualization orbit readout
Latitude
Unknown
Longitude
Unknown
Altitude
Unknown
Speed
Unknown
Apparent Right ascension
Unknown
Apparent Declination
Unknown
Sunlit
N/A
Visualization observer readout
Local Sidereal Time
19:14:30
Azimuth
Unknown
Elevation
Unknown
Doppler factor
Unknown
Orbital elements
Apogee altitude
749.34 km
Perigee altitude
747.257 km
Semi-major axis
7,126.435 km
Eccentricity
0.00015
Inclination
98.4056°
RAAN
304.8321°
Arg. of periapsis
107.2485°
True anomaly
252.8704°
Mean anomaly
252.8864°
Eccentric anomaly
252.8784°
Mean motion
3.60774 °/min
Orbital period
99.79 mins
BSTAR
0.000052176
Loading maneuver chart data...
Computing Atmospheric mass density...
Loading historical data...
Loading historical data...
Loading historical data...
Loading historical data...
Loading historical data...
Loading historical data...
Loading historical data...
Other satellites on launch #49 in the year 2016 (2016-08-09 UTC)

Documentation

Showing up to 5 results
|